User: anonymous   Login
Location: Unspecified
(50.0959°N, 14.3921°E)
Time: 02:20:48
(UTC+02:00)
Language:

Chandra X-Ray Observatory - Orbit

View from above orbital plane
View from above orbital plane
View from above satellite
View from above satellite

Ground track
Ground track

The orbit data is extracted from the following two-line orbital elements,

1 25867U 99040B   19198.31279849 +.00000433 +00000-0 +00000-0 0  9991
2 25867 067.3152 274.9868 7246656 233.4125 000.1616 00.37803597007793
Epoch (UTC): 17 July 2019 07:30:25
Eccentricity: 0.7246656
inclination: 67.3152°
perigee height: 15867 km
apogee height: 132963 km
right ascension of ascending node: 274.9868°
argument of perigee: 233.4125°
revolutions per day: 0.37803597
mean anomaly at epoch: 0.1616°
orbit number at epoch: 779

The dashed part of the orbit path shows where the satellite is in the earth's shadow,  

DLR